Content
SEND FEEDBACK

Daily
Averages
Monthly
Summary
United States of America

MERIZO, GUAM


Home > North America > United States > Guam
Elevation: 10 feet     Latitude: 13 14N     Longitude: 144 39E

WEATHER
 
SELECT A DAY
Number of Records: 356,513;   Date Range: 1/1/95 - 12/18/14
 
SHARE

PRINT THIS DATA

[ ← Previous Day ]
WEATHER ALMANAC - JULY 4, 2014
[ Next Day → ]
[ °C ]   °F
Weather ElementAverageHighLow
Temperature80.4 °F84.2 °F (11:36 am)77 °F (9:25 am)
Dewpoint75.4 °F77 °F (12:13 am)73 °F (5:58 pm)
Humidity85 %94 % (5:23 am)70 % (12:18 pm)
Barometer29.69 in29.80 in (2:34 pm)29.60 in (2:58 am)
Wind Speed25.4 mph33.4 mph (7:45 am)
Wind Gust50.6 mph (2:08 am)
Weather ElementAverage
Visibility8.1 mi
Wind DirectionSSE (153.1 °)

Weather ElementTotal
Precipitation0.88 in
Cooling Degree Days15.6 (Base 65)
Growing Degree Days30.6 (Base 50)
Averaged from 226 records on July 4, 2014
WEATHER CONDITIONS BREAKOUT
WIND DIRECTION BREAKOUT
WEATHER BY HOUR - JULY 4, 2014
[ °C ]   °F
Local TimeTemperatureDewpointHumidityBarometerVisibilityWind DirectionWind SpeedGust SpeedPrecipitationEventsConditions
12:38 AM82.4 °F77.0 °F84 %29.65 in10.0 miEast (100°)27.6 mph36.8 mphMostly Cloudy
12:38 AM82.4 °F77.0 °F84 %29.65 in10.0 miEast (100°)27.6 mph36.8 mphMostly Cloudy
12:53 AM82.4 °F75.2 °F79 %29.65 in10.0 miEast (90°)29.9 mph39.1 mphMostly Cloudy
12:53 AM82.4 °F75.2 °F79 %29.65 in10.0 miEast (90°)29.9 mph39.1 mphMostly Cloudy
12:58 AM82.4 °F74.8 °F78 %29.61 in10.0 miEast (100°)29.9 mph44.9 mphOvercast
12:58 AM82.4 °F74.8 °F78 %29.61 in10.0 miEast (100°)29.9 mph44.9 mphOvercast
1:00 AM82.4 °F75.2 °F79 %29.65 in5.0 miESE (120°)26.5 mph44.9 mphRainLight Rain
1:00 AM82.4 °F75.2 °F79 %29.65 in5.0 miESE (120°)26.5 mph44.9 mphRainLight Rain
1:10 AM78.8 °F77.0 °F94 %29.65 in6.0 miESE (110°)25.3 mph35.7 mphMostly Cloudy
1:10 AM78.8 °F77.0 °F94 %29.65 in6.0 miESE (110°)25.3 mph35.7 mphMostly Cloudy
1:15 AM78.8 °F77.0 °F94 %29.65 in10.0 miESE (110°)20.7 mph33.4 mphMostly Cloudy
1:15 AM78.8 °F77.0 °F94 %29.65 in10.0 miESE (110°)20.7 mph33.4 mphMostly Cloudy
1:20 AM80.6 °F77.0 °F89 %29.65 in10.0 miESE (110°)21.9 mph33.4 mphScattered Clouds
1:20 AM80.6 °F77.0 °F89 %29.65 in10.0 miESE (110°)21.9 mph33.4 mphScattered Clouds
1:46 AM80.6 °F77.0 °F89 %29.64 in10.0 miESE (120°)24.2 mph35.7 mphMostly Cloudy
1:46 AM80.6 °F77.0 °F89 %29.64 in10.0 miESE (120°)24.2 mph35.7 mphMostly Cloudy
1:51 AM80.6 °F77.0 °F89 %29.64 in10.0 miESE (120°)27.6 mph35.7 mphScattered Clouds
1:51 AM80.6 °F77.0 °F89 %29.64 in10.0 miESE (120°)27.6 mph35.7 mphScattered Clouds
1:56 AM80.6 °F77.0 °F89 %29.64 in10.0 miESE (120°)27.6 mph39.1 mphMostly Cloudy
1:56 AM80.6 °F77.0 °F89 %29.64 in10.0 miESE (120°)27.6 mph39.1 mphMostly Cloudy
1:58 AM80.8 °F76.3 °F86 %29.61 in10.0 miESE (110°)25.3 mph39.1 mph0.01 inMostly Cloudy
1:58 AM80.8 °F76.3 °F86 %29.61 in10.0 miESE (110°)25.3 mph39.1 mph0.01 inMostly Cloudy
2:08 AM77.0 °F73.4 °F89 %29.65 in3.0 miSE (140°)28.8 mph50.6 mphMostly Cloudy
2:08 AM77.0 °F73.4 °F89 %29.65 in3.0 miSE (140°)28.8 mph50.6 mphMostly Cloudy
2:23 AM78.8 °F75.2 °F89 %29.64 in10.0 miSE (130°)28.8 mph39.1 mphMostly Cloudy
2:23 AM78.8 °F75.2 °F89 %29.64 in10.0 miSE (130°)28.8 mph39.1 mphMostly Cloudy
2:53 AM80.6 °F75.2 °F84 %29.63 in10.0 miSE (130°)21.9 mph33.4 mphMostly Cloudy
2:53 AM80.6 °F75.2 °F84 %29.63 in10.0 miSE (130°)21.9 mph33.4 mphMostly Cloudy
2:58 AM79.9 °F75.7 °F87 %29.60 in9.0 miSE (130°)31.1 mph42.6 mph0.01 inMostly Cloudy
2:58 AM79.9 °F75.7 °F87 %29.60 in9.0 miSE (130°)31.1 mph42.6 mph0.01 inMostly Cloudy
3:03 AM78.8 °F75.2 °F89 %29.63 in7.0 miSE (140°)31.1 mph48.3 mphOvercast
3:03 AM78.8 °F75.2 °F89 %29.63 in7.0 miSE (140°)31.1 mph48.3 mphOvercast
3:08 AM78.8 °F75.2 °F89 %29.63 in9.0 miSE (140°)32.2 mph48.3 mphMostly Cloudy
3:08 AM78.8 °F75.2 °F89 %29.63 in9.0 miSE (140°)32.2 mph48.3 mphMostly Cloudy
3:13 AM78.8 °F75.2 °F89 %29.63 in10.0 miSE (140°)31.1 mph41.4 mphMostly Cloudy
3:13 AM78.8 °F75.2 °F89 %29.63 in10.0 miSE (140°)31.1 mph41.4 mphMostly Cloudy
3:23 AM78.8 °F75.2 °F89 %29.63 in9.0 miSE (130°)25.3 mph41.4 mphMostly Cloudy
3:23 AM78.8 °F75.2 °F89 %29.63 in9.0 miSE (130°)25.3 mph41.4 mphMostly Cloudy
3:28 AM80.6 °F75.2 °F84 %29.63 in9.0 miSE (140°)32.2 mph41.4 mphMostly Cloudy
3:28 AM80.6 °F75.2 °F84 %29.63 in9.0 miSE (140°)32.2 mph41.4 mphMostly Cloudy
3:58 AM80.2 °F74.3 °F82 %29.60 in10.0 miSE (140°)28.8 mph38.0 mphPartly Cloudy
3:58 AM80.2 °F74.3 °F82 %29.60 in10.0 miSE (140°)28.8 mph38.0 mphPartly Cloudy
4:28 AM80.6 °F73.4 °F79 %29.65 in10.0 miSE (140°)26.5 mph36.8 mphMostly Cloudy
4:28 AM80.6 °F73.4 °F79 %29.65 in10.0 miSE (140°)26.5 mph36.8 mphMostly Cloudy
4:43 AM80.6 °F75.2 °F84 %29.65 in10.0 miSE (130°)28.8 mph39.1 mphMostly Cloudy
4:43 AM80.6 °F75.2 °F84 %29.65 in10.0 miSE (130°)28.8 mph39.1 mphMostly Cloudy
4:58 AM81.0 °F74.7 °F81 %29.62 in10.0 miSE (140°)26.5 mph39.1 mphMostly Cloudy
4:58 AM81.0 °F74.7 °F81 %29.62 in10.0 miSE (140°)26.5 mph39.1 mphMostly Cloudy
5:03 AM80.6 °F75.2 °F84 %29.65 in10.0 miSE (140°)27.6 mph39.1 mphMostly Cloudy
5:03 AM80.6 °F75.2 °F84 %29.65 in10.0 miSE (140°)27.6 mph39.1 mphMostly Cloudy
5:08 AM80.6 °F75.2 °F84 %29.66 in10.0 miSE (140°)29.9 mph35.7 mphMostly Cloudy
5:08 AM80.6 °F75.2 °F84 %29.66 in10.0 miSE (140°)29.9 mph35.7 mphMostly Cloudy
5:27 AM80.6 °F73.4 °F79 %29.66 in7.0 miSE (140°)28.8 mph40.3 mphRainLight Rain
5:27 AM80.6 °F73.4 °F79 %29.66 in7.0 miSE (140°)28.8 mph40.3 mphRainLight Rain
5:32 AM78.8 °F75.2 °F89 %29.66 in7.0 miSE (140°)19.6 mph39.1 mphRainLight Rain
5:32 AM78.8 °F75.2 °F89 %29.66 in7.0 miSE (140°)19.6 mph39.1 mphRainLight Rain
5:37 AM78.8 °F75.2 °F89 %29.66 in9.0 miSE (130°)21.9 mph39.1 mphScattered Clouds
5:37 AM78.8 °F75.2 °F89 %29.66 in9.0 miSE (130°)21.9 mph39.1 mphScattered Clouds
5:58 AM80.8 °F75.6 °F84 %29.62 in10.0 miSE (130°)28.8 mph36.8 mph0.00 inPartly Cloudy
5:58 AM80.8 °F75.6 °F84 %29.62 in10.0 miSE (130°)28.8 mph36.8 mph0.00 inPartly Cloudy
6:48 AM80.6 °F75.2 °F84 %29.66 in10.0 miSE (130°)28.8 mph38.0 mphMostly Cloudy
6:48 AM80.6 °F75.2 °F84 %29.66 in10.0 miSE (130°)28.8 mph38.0 mphMostly Cloudy
6:58 AM81.3 °F75.2 °F82 %29.63 in10.0 miSE (130°)21.9 mph36.8 mphMostly Cloudy
6:58 AM81.3 °F75.2 °F82 %29.63 in10.0 miSE (130°)21.9 mph36.8 mphMostly Cloudy
7:03 AM80.6 °F75.2 °F84 %29.66 in10.0 miSE (130°)24.2 mph34.5 mphMostly Cloudy
7:03 AM80.6 °F75.2 °F84 %29.66 in10.0 miSE (130°)24.2 mph34.5 mphMostly Cloudy
7:18 AM80.6 °F75.2 °F84 %29.67 in10.0 miSE (130°)29.9 mph38.0 mphMostly Cloudy
7:18 AM80.6 °F75.2 °F84 %29.67 in10.0 miSE (130°)29.9 mph38.0 mphMostly Cloudy
7:28 AM80.6 °F75.2 °F84 %29.68 in10.0 miSE (140°)31.1 mph40.3 mphScattered Clouds
7:28 AM80.6 °F75.2 °F84 %29.68 in10.0 miSE (140°)31.1 mph40.3 mphScattered Clouds
7:35 AM80.6 °F75.2 °F84 %29.68 in10.0 miSE (130°)31.1 mph38.0 mphMostly Cloudy
7:35 AM80.6 °F75.2 °F84 %29.68 in10.0 miSE (130°)31.1 mph38.0 mphMostly Cloudy
7:45 AM80.6 °F75.2 °F84 %29.68 in10.0 miSE (130°)33.4 mph40.3 mphMostly Cloudy
7:45 AM80.6 °F75.2 °F84 %29.68 in10.0 miSE (130°)33.4 mph40.3 mphMostly Cloudy
7:58 AM81.3 °F75.2 °F82 %29.65 in10.0 miSSE (150°)24.2 mph40.3 mphMostly Cloudy
7:58 AM81.3 °F75.2 °F82 %29.65 in10.0 miSSE (150°)24.2 mph40.3 mphMostly Cloudy
8:18 AM80.6 °F75.2 °F84 %29.69 in10.0 miSE (140°)27.6 mph40.3 mphMostly Cloudy
8:18 AM80.6 °F75.2 °F84 %29.69 in10.0 miSE (140°)27.6 mph40.3 mphMostly Cloudy
8:28 AM80.6 °F75.2 °F84 %29.69 in10.0 miSE (140°)26.5 mph40.3 mphMostly Cloudy
8:28 AM80.6 °F75.2 °F84 %29.69 in10.0 miSE (140°)26.5 mph40.3 mphMostly Cloudy
8:48 AM80.6 °F75.2 °F84 %29.69 in10.0 miSE (140°)27.6 mph34.5 mphScattered Clouds
8:48 AM80.6 °F75.2 °F84 %29.69 in10.0 miSE (140°)27.6 mph34.5 mphScattered Clouds
8:58 AM80.4 °F75.6 °F85 %29.66 in10.0 miSE (140°)29.9 mph36.8 mphScattered Clouds
8:58 AM80.4 °F75.6 °F85 %29.66 in10.0 miSE (140°)29.9 mph36.8 mphScattered Clouds
9:13 AM80.6 °F75.2 °F84 %29.70 in2.5 miSSE (160°)25.3 mph38.0 mphHaze
9:13 AM80.6 °F75.2 °F84 %29.70 in2.5 miSSE (160°)25.3 mph38.0 mphHaze
9:18 AM78.8 °F77.0 °F94 %29.70 in2.5 miSSE (150°)25.3 mph33.4 mphMostly Cloudy
9:18 AM78.8 °F77.0 °F94 %29.70 in2.5 miSSE (150°)25.3 mph33.4 mphMostly Cloudy
9:23 AM78.8 °F75.2 °F89 %29.70 in7.0 miSE (140°)29.9 mph36.8 mphScattered Clouds
9:23 AM78.8 °F75.2 °F89 %29.70 in7.0 miSE (140°)29.9 mph36.8 mphScattered Clouds
9:30 AM78.8 °F75.2 °F89 %29.69 in9.0 miSE (140°)26.5 mph41.4 mphRainLight Rain
9:30 AM78.8 °F75.2 °F89 %29.69 in9.0 miSE (140°)26.5 mph41.4 mphRainLight Rain
9:35 AM78.8 °F75.2 °F89 %29.70 in9.0 miSE (140°)21.9 mph41.4 mphRainLight Rain
9:35 AM78.8 °F75.2 °F89 %29.70 in9.0 miSE (140°)21.9 mph41.4 mphRainLight Rain
9:39 AM80.6 °F75.2 °F84 %29.70 in10.0 miSSE (150°)24.2 mph36.8 mphMostly Cloudy
9:39 AM80.6 °F75.2 °F84 %29.70 in10.0 miSSE (150°)24.2 mph36.8 mphMostly Cloudy
9:49 AM80.6 °F75.2 °F84 %29.70 in10.0 miSE (140°)28.8 mph38.0 mphMostly Cloudy
9:49 AM80.6 °F75.2 °F84 %29.70 in10.0 miSE (140°)28.8 mph38.0 mphMostly Cloudy
9:54 AM80.6 °F75.2 °F84 %29.70 in10.0 miSE (140°)23.0 mph38.0 mphMostly Cloudy
9:54 AM80.6 °F75.2 °F84 %29.70 in10.0 miSE (140°)23.0 mph38.0 mphMostly Cloudy
9:58 AM80.1 °F74.8 °F84 %29.66 in8.0 miSE (140°)28.8 mph38.0 mph0.03 inMostly Cloudy
9:58 AM80.1 °F74.8 °F84 %29.66 in8.0 miSE (140°)28.8 mph38.0 mph0.03 inMostly Cloudy
9:59 AM80.6 °F75.2 °F84 %29.70 in7.0 miSE (140°)25.3 mph38.0 mphRainLight Rain
9:59 AM80.6 °F75.2 °F84 %29.70 in7.0 miSE (140°)25.3 mph38.0 mphRainLight Rain
10:39 AM80.6 °F75.2 °F84 %29.70 in10.0 miSSE (160°)27.6 mph35.7 mphMostly Cloudy
10:39 AM80.6 °F75.2 °F84 %29.70 in10.0 miSSE (160°)27.6 mph35.7 mphMostly Cloudy
10:49 AM80.6 °F73.4 °F79 %29.70 in10.0 miSSE (160°)25.3 mph38.0 mphMostly Cloudy
10:49 AM80.6 °F73.4 °F79 %29.70 in10.0 miSSE (160°)25.3 mph38.0 mphMostly Cloudy
10:54 AM80.6 °F75.2 °F84 %29.70 in10.0 miSSE (150°)26.5 mph38.0 mphMostly Cloudy
10:54 AM80.6 °F75.2 °F84 %29.70 in10.0 miSSE (150°)26.5 mph38.0 mphMostly Cloudy
11:03 AM82.4 °F75.2 °F79 %29.70 in10.0 miSSE (160°)26.5 mph39.1 mphMostly Cloudy
11:03 AM82.4 °F75.2 °F79 %29.70 in10.0 miSSE (160°)26.5 mph39.1 mphMostly Cloudy
11:08 AM82.4 °F75.2 °F79 %29.70 in10.0 miSSE (150°)24.2 mph39.1 mphScattered Clouds
11:08 AM82.4 °F75.2 °F79 %29.70 in10.0 miSSE (150°)24.2 mph39.1 mphScattered Clouds
11:18 AM82.4 °F75.2 °F79 %29.71 in10.0 miSSE (150°)23.0 mph33.4 mphMostly Cloudy
11:18 AM82.4 °F75.2 °F79 %29.71 in10.0 miSSE (150°)23.0 mph33.4 mphMostly Cloudy
11:33 AM82.4 °F77.0 °F84 %29.70 in8.0 miSSE (160°)25.3 mph36.8 mphMostly Cloudy
11:33 AM82.4 °F77.0 °F84 %29.70 in8.0 miSSE (160°)25.3 mph36.8 mphMostly Cloudy
11:38 AM82.4 °F77.0 °F84 %29.69 in8.0 miSSE (150°)28.8 mph36.8 mphMostly Cloudy
11:38 AM82.4 °F77.0 °F84 %29.69 in8.0 miSSE (150°)28.8 mph36.8 mphMostly Cloudy
11:40 AM82.4 °F77.0 °F84 %29.69 in8.0 miSSE (160°)27.6 mph36.8 mphRainLight Rain
11:40 AM82.4 °F77.0 °F84 %29.69 in8.0 miSSE (160°)27.6 mph36.8 mphRainLight Rain
11:45 AM82.4 °F77.0 °F84 %29.69 in7.0 miSSE (160°)24.2 mph36.8 mphRainLight Rain
11:45 AM82.4 °F77.0 °F84 %29.69 in7.0 miSSE (160°)24.2 mph36.8 mphRainLight Rain
11:50 AM82.4 °F77.0 °F84 %29.69 in8.0 miSSE (150°)27.6 mph33.4 mphRainLight Rain
11:50 AM82.4 °F77.0 °F84 %29.69 in8.0 miSSE (150°)27.6 mph33.4 mphRainLight Rain
11:52 AM82.4 °F77.0 °F84 %29.69 in9.0 miSSE (150°)31.1 mph38.0 mphMostly Cloudy
11:52 AM82.4 °F77.0 °F84 %29.69 in9.0 miSSE (150°)31.1 mph38.0 mphMostly Cloudy
11:57 AM82.4 °F77.0 °F84 %29.70 in10.0 miSSE (160°)23.0 mph38.0 mphScattered Clouds
11:57 AM82.4 °F77.0 °F84 %29.70 in10.0 miSSE (160°)23.0 mph38.0 mphScattered Clouds
11:58 AM82.4 °F77.0 °F84 %29.67 in10.0 miSSE (160°)23.0 mph38.0 mph0.00 inScattered Clouds
11:58 AM82.4 °F77.0 °F84 %29.67 in10.0 miSSE (160°)23.0 mph38.0 mph0.00 inScattered Clouds
12:05 PM82.4 °F77.0 °F84 %29.70 in2.0 miSSE (150°)28.8 mph35.7 mphRainHeavy Rain
12:05 PM82.4 °F77.0 °F84 %29.70 in2.0 miSSE (150°)28.8 mph35.7 mphRainHeavy Rain
12:10 PM80.6 °F77.0 °F89 %29.70 in1.0 miSSE (150°)24.2 mph35.7 mphRainHeavy Rain
12:10 PM80.6 °F77.0 °F89 %29.70 in1.0 miSSE (150°)24.2 mph35.7 mphRainHeavy Rain
12:15 PM78.8 °F77.0 °F94 %29.70 in1.2 miSSE (160°)25.3 mph35.7 mphRainLight Rain
12:15 PM78.8 °F77.0 °F94 %29.70 in1.2 miSSE (160°)25.3 mph35.7 mphRainLight Rain
12:20 PM78.8 °F77.0 °F94 %29.70 in1.8 miSouth (170°)26.5 mph42.6 mphRainLight Rain
12:20 PM78.8 °F77.0 °F94 %29.70 in1.8 miSouth (170°)26.5 mph42.6 mphRainLight Rain
12:25 PM78.8 °F77.0 °F94 %29.70 in2.0 miSouth (170°)28.8 mph42.6 mphRainLight Rain
12:25 PM78.8 °F77.0 °F94 %29.70 in2.0 miSouth (170°)28.8 mph42.6 mphRainLight Rain
12:29 PM78.8 °F75.2 °F89 %29.70 in8.0 miSouth (170°)28.8 mph38.0 mphOvercast
12:29 PM78.8 °F75.2 °F89 %29.70 in8.0 miSouth (170°)28.8 mph38.0 mphOvercast
12:44 PM80.6 °F75.2 °F84 %29.69 in10.0 miSouth (170°)29.9 mph39.1 mphOvercast
12:44 PM80.6 °F75.2 °F84 %29.69 in10.0 miSouth (170°)29.9 mph39.1 mphOvercast
12:49 PM80.6 °F75.2 °F84 %29.69 in10.0 miSouth (170°)26.5 mph39.1 mphMostly Cloudy
12:49 PM80.6 °F75.2 °F84 %29.69 in10.0 miSouth (170°)26.5 mph39.1 mphMostly Cloudy
12:58 PM81.9 °F75.9 °F82 %29.66 in10.0 miSouth (170°)27.6 mph38.0 mph0.13 inMostly Cloudy
12:58 PM81.9 °F75.9 °F82 %29.66 in10.0 miSouth (170°)27.6 mph38.0 mph0.13 inMostly Cloudy
1:58 PM83.1 °F75.0 °F76 %29.65 in10.0 miSouth (170°)29.9 mph43.7 mphMostly Cloudy
1:58 PM83.1 °F75.0 °F76 %29.65 in10.0 miSouth (170°)29.9 mph43.7 mphMostly Cloudy
2:03 PM82.4 °F75.2 °F79 %29.68 in10.0 miSouth (170°)25.3 mph43.7 mphMostly Cloudy
2:03 PM82.4 °F75.2 °F79 %29.68 in10.0 miSouth (170°)25.3 mph43.7 mphMostly Cloudy
2:18 PM82.4 °F75.2 °F79 %29.69 in10.0 miSSE (160°)26.5 mph36.8 mphMostly Cloudy
2:18 PM82.4 °F75.2 °F79 %29.69 in10.0 miSSE (160°)26.5 mph36.8 mphMostly Cloudy
2:28 PM82.4 °F75.2 °F79 %29.69 in10.0 miSouth (170°)26.5 mph36.8 mphMostly Cloudy
2:28 PM82.4 °F75.2 °F79 %29.69 in10.0 miSouth (170°)26.5 mph36.8 mphMostly Cloudy
2:58 PM83.8 °F75.0 °F75 %29.66 in10.0 miSSE (160°)28.8 mph35.7 mphMostly Cloudy
2:58 PM83.8 °F75.0 °F75 %29.66 in10.0 miSSE (160°)28.8 mph35.7 mphMostly Cloudy
3:18 PM84.2 °F73.4 °F70 %29.69 in10.0 miSouth (180°)28.8 mph40.3 mphMostly Cloudy
3:18 PM84.2 °F73.4 °F70 %29.69 in10.0 miSouth (180°)28.8 mph40.3 mphMostly Cloudy
3:28 PM82.4 °F73.4 °F74 %29.70 in10.0 miSouth (170°)25.3 mph41.4 mphMostly Cloudy
3:28 PM82.4 °F73.4 °F74 %29.70 in10.0 miSouth (170°)25.3 mph41.4 mphMostly Cloudy
3:33 PM82.4 °F73.4 °F74 %29.70 in10.0 miSouth (170°)24.2 mph38.0 mphMostly Cloudy
3:33 PM82.4 °F73.4 °F74 %29.70 in10.0 miSouth (170°)24.2 mph38.0 mphMostly Cloudy
3:58 PM82.0 °F74.7 °F78 %29.67 in10.0 miSouth (180°)29.9 mph40.3 mphMostly Cloudy
3:58 PM82.0 °F74.7 °F78 %29.67 in10.0 miSouth (180°)29.9 mph40.3 mphMostly Cloudy
4:13 PM82.4 °F75.2 °F79 %29.70 in10.0 miSouth (170°)25.3 mph32.2 mphScattered Clouds
4:13 PM82.4 °F75.2 °F79 %29.70 in10.0 miSouth (170°)25.3 mph32.2 mphScattered Clouds
4:27 PM80.6 °F75.2 °F84 %29.70 in7.0 miSouth (190°)23.0 mph31.1 mphLight Drizzle
4:27 PM80.6 °F75.2 °F84 %29.70 in7.0 miSouth (190°)23.0 mph31.1 mphLight Drizzle
4:32 PM80.6 °F75.2 °F84 %29.70 in1.8 miSouth (180°)23.0 mph35.7 mphRainHeavy Rain
4:32 PM80.6 °F75.2 °F84 %29.70 in1.8 miSouth (180°)23.0 mph35.7 mphRainHeavy Rain
4:37 PM78.8 °F75.2 °F89 %29.70 in1.2 miSouth (170°)23.0 mph35.7 mphRainLight Rain
4:37 PM78.8 °F75.2 °F89 %29.70 in1.2 miSouth (170°)23.0 mph35.7 mphRainLight Rain
4:42 PM78.8 °F75.2 °F89 %29.70 in1.8 miSouth (170°)19.6 mph29.9 mphRainLight Rain
4:42 PM78.8 °F75.2 °F89 %29.70 in1.8 miSouth (170°)19.6 mph29.9 mphRainLight Rain
4:47 PM78.8 °F77.0 °F94 %29.70 in4.0 miSouth (170°)20.7 mph28.8 mphRainLight Rain
4:47 PM78.8 °F77.0 °F94 %29.70 in4.0 miSouth (170°)20.7 mph28.8 mphRainLight Rain
4:51 PM78.8 °F77.0 °F94 %29.71 in9.0 miSouth (170°)21.9 mph26.5 mphScattered Clouds
4:51 PM78.8 °F77.0 °F94 %29.71 in9.0 miSouth (170°)21.9 mph26.5 mphScattered Clouds
5:18 PM80.6 °F73.4 °F79 %29.72 in10.0 miSouth (180°)19.6 mph29.9 mphMostly Cloudy
5:18 PM80.6 °F73.4 °F79 %29.72 in10.0 miSouth (180°)19.6 mph29.9 mphMostly Cloudy
5:52 PM80.6 °F75.2 °F84 %29.74 in3.0 miSouth (180°)28.8 mph42.6 mphRainLight Rain
5:52 PM80.6 °F75.2 °F84 %29.74 in3.0 miSouth (180°)28.8 mph42.6 mphRainLight Rain
5:58 PM80.1 °F76.1 °F88 %29.70 in2.0 miSouth (180°)21.9 mph42.6 mph0.03 inRainLight Rain
5:58 PM80.1 °F76.1 °F88 %29.70 in2.0 miSouth (180°)21.9 mph42.6 mph0.03 inRainLight Rain
6:03 PM78.8 °F75.2 °F89 %29.73 in3.0 miSouth (170°)18.4 mph35.7 mphRainLight Rain
6:03 PM78.8 °F75.2 °F89 %29.73 in3.0 miSouth (170°)18.4 mph35.7 mphRainLight Rain
6:08 PM78.8 °F75.2 °F89 %29.74 in10.0 miSouth (180°)17.3 mph26.5 mphRainLight Rain
6:08 PM78.8 °F75.2 °F89 %29.74 in10.0 miSouth (180°)17.3 mph26.5 mphRainLight Rain
6:09 PM78.8 °F75.2 °F89 %29.74 in10.0 miSouth (170°)17.3 mph26.5 mphMostly Cloudy
6:09 PM78.8 °F75.2 °F89 %29.74 in10.0 miSouth (170°)17.3 mph26.5 mphMostly Cloudy
6:58 PM79.9 °F73.0 °F80 %29.71 in10.0 miSouth (170°)19.6 mph25.3 mph0.01 inScattered Clouds
6:58 PM79.9 °F73.0 °F80 %29.71 in10.0 miSouth (170°)19.6 mph25.3 mph0.01 inScattered Clouds
7:58 PM80.6 °F73.4 °F79 %29.73 in10.0 miSouth (170°)24.2 mph29.9 mphMostly Cloudy
7:58 PM80.6 °F73.4 °F79 %29.73 in10.0 miSouth (170°)24.2 mph29.9 mphMostly Cloudy
8:47 PM80.6 °F75.2 °F84 %29.80 in9.0 miSSW (200°)18.4 mph31.1 mphMostly Cloudy
8:47 PM80.6 °F75.2 °F84 %29.80 in9.0 miSSW (200°)18.4 mph31.1 mphMostly Cloudy
8:50 PM80.6 °F75.2 °F84 %29.80 in2.0 miSSW (200°)28.8 mph33.4 mphRainHeavy Rain
8:50 PM80.6 °F75.2 °F84 %29.80 in2.0 miSSW (200°)28.8 mph33.4 mphRainHeavy Rain
8:55 PM78.8 °F75.2 °F89 %29.79 in0.8 miSSW (200°)23.0 mph33.4 mphRainHeavy Rain
8:55 PM78.8 °F75.2 °F89 %29.79 in0.8 miSSW (200°)23.0 mph33.4 mphRainHeavy Rain
8:58 PM78.6 °F75.2 °F89 %29.76 in0.8 miSSW (200°)27.6 mph33.4 mph0.16 inRainHeavy Rain
8:58 PM78.6 °F75.2 °F89 %29.76 in0.8 miSSW (200°)27.6 mph33.4 mph0.16 inRainHeavy Rain
9:03 PM77.0 °F75.2 °F94 %29.80 in1.2 miSouth (180°)21.9 mph32.2 mphRainLight Rain
9:03 PM77.0 °F75.2 °F94 %29.80 in1.2 miSouth (180°)21.9 mph32.2 mphRainLight Rain
9:08 PM78.8 °F77.0 °F94 %29.80 in3.0 miSouth (180°)17.3 mph31.1 mphRainLight Rain
9:08 PM78.8 °F77.0 °F94 %29.80 in3.0 miSouth (180°)17.3 mph31.1 mphRainLight Rain
9:13 PM78.8 °F75.2 °F89 %29.79 in6.0 miSouth (180°)18.4 mph31.1 mphRainLight Rain
9:13 PM78.8 °F75.2 °F89 %29.79 in6.0 miSouth (180°)18.4 mph31.1 mphRainLight Rain
9:23 PM77.0 °F75.2 °F94 %29.79 in10.0 miSouth (180°)17.3 mph25.3 mphRainLight Rain
9:23 PM77.0 °F75.2 °F94 %29.79 in10.0 miSouth (180°)17.3 mph25.3 mphRainLight Rain
9:24 PM78.8 °F75.2 °F89 %29.79 in10.0 miSouth (170°)18.4 mphScattered Clouds
9:24 PM78.8 °F75.2 °F89 %29.79 in10.0 miSouth (170°)18.4 mphScattered Clouds
9:36 PM78.8 °F75.2 °F89 %29.79 in10.0 miSouth (170°)15.0 mph24.2 mphRainLight Rain
9:36 PM78.8 °F75.2 °F89 %29.79 in10.0 miSouth (170°)15.0 mph24.2 mphRainLight Rain
9:46 PM78.8 °F75.2 °F89 %29.79 in10.0 miSouth (180°)21.9 mph27.6 mphClear
9:46 PM78.8 °F75.2 °F89 %29.79 in10.0 miSouth (180°)21.9 mph27.6 mphClear
9:58 PM78.8 °F73.9 °F85 %29.76 in10.0 miSouth (190°)23.0 mph26.5 mph0.06 inClear
9:58 PM78.8 °F73.9 °F85 %29.76 in10.0 miSouth (190°)23.0 mph26.5 mph0.06 inClear
10:58 PM79.5 °F75.2 °F87 %29.78 in10.0 miSouth (190°)18.4 mphClear
10:58 PM79.5 °F75.2 °F87 %29.78 in10.0 miSouth (190°)18.4 mphClear
11:58 PM80.6 °F75.2 °F84 %29.79 in10.0 miSSW (200°)16.1 mph24.2 mphClear
11:58 PM80.6 °F75.2 °F84 %29.79 in10.0 miSSW (200°)16.1 mph24.2 mphClear
Hourly data recorded from PGUA, located miles away from Merizo, Guam







STORIES FROM OUR PARTNERS